Location: Trebic
(49.2170°N, 15.8830°E)
Time: 02:21:10
(UTC+02:00)

Transit 2A Rocket - Pass Details

Date: 29 July 2019
Orbit: 590 x 913 km, 66.7° (Epoch: 20 August)

Event Time Altitude Azimuth Distance (km) Brightness Sun altitude
Rises 05:08:29 0° 278° (W) 3,432 7.9 -3.0°
Reaches altitude 10° 05:12:02 10° 299° (WNW) 2,439 7.3 -2.5°
Maximum altitude 05:15:29 16° 337° (NNW) 1,967 7.3 -2.0°
Drops below altitude 10° 05:18:47 10° 16° (NNE) 2,309 8.3 -1.6°
Sets 05:22:01 0° 38° (NE) 3,164 9.8 -1.1°
